Regional Weather Roundup
Issued by NWS

Home | Current Version | Previous Version | Graphics & Text | Print | Product List | Glossary On
Versions: 1 2 3 4 5 6 7 8 9 10 11 12 13 14 15 16 17 18 19 20 21 22 23 24 25 26 27 28 29 30 31 32 33 34 35 36 37 38 39 40 41 42 43 44 45 46 47 48 49 50
000
ASUS43 KMPX 040110
RWRMN
WEATHER ROUNDUP FOR MINNESOTA
NATIONAL WEATHER SERVICE TWIN CITIES/CHANHASSEN MN
700 PM CST TUE MAR 03 2015


NOTE: "FAIR" INDICATES FEW OR NO CLOUDS BELOW 12,000 FEET WITH NO
SIGNIFICANT WEATHER AND/OR OBSTRUCTIONS TO VISIBILITY. N/A MEANS
CURRENT SKY AND/OR WEATHER CONDITIONS ARE NOT AVAILABLE.

MNZ060>063-068>070-040200-
   Twin Cities Metro

CITY           SKY/WX    TMP DP  RH WIND       PRES   REMARKS
TWIN CITIES    PTCLDY    15   4  61 W17       29.89R WCI  -1
ST PAUL        CLEAR     17   7  64 NW17G30   29.90R WCI   1
CRYSTAL        PTCLDY    16   4  59 W18       29.89R WCI   0
LAKEVILLE      CLEAR     12   7  79 W18G24    29.88R WCI  -5
EDEN PRAIRIE   PTCLDY    14   5  67 W18G28    29.89R WCI  -3
SOUTH ST PAUL  PTCLDY    18   7  63 W9G18     29.88R WCI   7
LAKE ELMO      FAIR      19   9  63 W21G28    29.87R WCI   3
$$
MNZ001>005-007-008-013>017-022>024-027-028-040200-
   Northwest Minnesota

CITY           SKY/WX    TMP DP  RH WIND       PRES   REMARKS
BEMIDJI        PTCLDY     1  -7  69 W17G25    29.84R WCI -19
HALLOCK        PTCLDY     1  -8  66 NW18G25   29.92R WCI -19
ROSEAU         PTCLDY     1  -6  71 W10G17    29.85R WCI -14
WARROAD        PTCLDY     1  -6  71 W13       29.83R WCI -16
THIEF RVR FALL CLOUDY     1  -2  85 W20       29.89R WCI -20
CROOKSTON      PTCLDY     3  -4  72 NW17G23   29.96R WCI -17
FOSSTON        CLOUDY     0  -6  78 NW13G18   29.90R HAZE    WCI -18
DETROIT LAKES  CLEAR      5  -2  72 NW15G22   29.92R WCI -13
MOORHEAD       PTCLDY     7   0  72 NW21      30.00R WCI -13
PARK RAPIDS    PTCLDY     4  -4  69 NW20      29.85R WCI -17
MAHNOMEN       FAIR       4  -5  68 W21       29.91R WCI -18
$$
MNZ006-009>011-018-025>026-040200-
   North Central Minnesota

CITY           SKY/WX    TMP DP  RH WIND       PRES   REMARKS
BAUDETTE       MOCLDY     2  -4  76 W13       29.78R HAZE    WCI -15
FLAG ISLAND    PTCLDY     0  -8  71 NW15      29.80R WCI -20
INTL FALLS     CLEAR      3 -10  54 W15G23    29.75R WCI -16
WASKISH        PTCLDY     3  -2  78 W16G23    29.82R WCI -16
BIG FORK       CLEAR      7  -8  51 W8G18     29.78R WCI  -6
LONGVILLE      PTCLDY     5  -2  72 W13G22    29.83R WCI -12
GRAND RAPIDS   CLEAR      7  -2  66 NW14G23   29.76R WCI -10
CRANE LAKE     CLEAR      7  -9  47 NW6       29.74R WCI  -3
ORR            CLEAR      7  -9  47 W14G23    29.70R WCI -10
COOK           CLEAR      7  -2  66 W17G25    29.72R WCI -12
WALKER         FAIR       3  -7  63 W15G21    29.84R WCI -16
$$
MNZ012-019>021-037-040200-
   Northeast Minnesota

CITY           SKY/WX    TMP DP  RH WIND       PRES   REMARKS
DULUTH         PTCLDY    12  -1  56 W16G28    29.71R WCI  -5
ELY            MOCLDY     9  -2  61 NW14G23   29.65R WCI  -8
HIBBING        MOCLDY     8  -4  58 W15G21    29.73R WCI  -9
EVELETH        PTCLDY    10   0  61 W18G24    29.72R WCI  -8
DULUTH HARBOR  CLEAR     16   5  62 W16G24    29.78R WCI   0
TWO HARBORS    CLEAR     18   3  53 W10G20    29.68R WCI   6
SILVER BAY     FAIR      16   3  57 W6        29.65R WCI   7
GRAND MARAIS     N/A     15   2  56 VRB7G21   29.63R WCI   5
G MARAIS ARPRT PTCLDY     7  -4  61 W10G23    29.54R WCI  -8
$$
MNZ029>031-032-039>041-046>048-054>057-064-040200-
   West Central Minnesota

CITY           SKY/WX    TMP DP  RH WIND       PRES   REMARKS
FERGUS FALLS   PTCLDY     7  -6  56 NW22G35   30.00R WCI -14
WHEATON        CLEAR      7   1  78 W18G26    30.04R WCI -12
MORRIS         CLEAR      7   0  72 NW18      29.98R WCI -12
ALEXANDRIA     MOCLDY     7   1  76 NW24      29.92R HAZE    WCI -14
ELBOW LAKE     FAIR       6  -1  72 NW20G29   29.97R WCI -14
WADENA         CLEAR      3  -4  72 W18       29.89R WCI -17
GLENWOOD       MOCLDY     7   3  85 W17       29.94R FOG     WCI -12
APPLETON       PTCLDY    10   3  72 NW17      30.02R WCI  -7
BENSON         CLEAR      9   0  66 N16       29.99R WCI  -9
ORTONVILLE     CLEAR      9   0  66 NW13      30.01R WCI  -7
MADISON        CLEAR     10   1  67 NW12      30.03R WCI  -4
WILLMAR        FAIR      10   1  67 W14G23    29.99R WCI  -5
$$
MNZ033>034-036-042>043-049>051-058-059-040200-
   Central Minnesota

CITY           SKY/WX    TMP DP  RH WIND       PRES   REMARKS
ST CLOUD       CLEAR     11   2  67 NW21G28   29.90R WCI  -8
SAUK CENTRE    FAIR       7  -1  69 W13       29.92R WCI  -9
PAYNESVILLE    PTCLDY     6   0  75 SW15G21   29.94R WCI -12
AITKIN         PTCLDY    12   0  57 W6        29.81R WCI   3
PINE RIVER     CLEAR      7  -4  61 NW13G21   29.88R WCI  -9
BRAINERD       PTCLDY     8  -1  66 W13G22    29.86R WCI  -8
STAPLES        MOCLDY     3  -2  78 W14       29.89R WCI -15
LITTLE FALLS   CLEAR     10   0  61 W13G23    29.91R WCI  -5
LITCHFIELD     MOCLDY    10   7  85 W17G26    29.95R WCI  -7
BUFFALO        CLEAR     13   4  68 W20G26    29.94R WCI  -5
MAPLE LAKE     MOCLDY    13   6  73 W15G24    29.92R WCI  -3
$$
MNZ037-044-045-052-053-040200-
   East Central Minnesota

CITY           SKY/WX    TMP DP  RH WIND       PRES   REMARKS
PRINCETON      CLEAR     14   1  57 W14G24    29.88R WCI  -1
MORA           CLEAR     14   1  57 NW17G23   29.86R WCI  -3
CAMBRIDGE      CLEAR     16   3  57 W14       29.86R WCI   1
RUSH CITY      CLEAR     14   5  65 W13G18    29.85R WCI   0
MOOSE LAKE     CLEAR     14  -2  48 NW9G17    29.78R WCI   2
HINCKLEY       FAIR      18   3  53 W12G20    29.81R WCI   5
CLOQUET        PTCLDY    12   0  57 W10       29.74R WCI  -1
MCGREGOR       CLEAR     12   1  62 NW7       29.80R WCI   2
$$
MNZ071>073-080-081-089-090-097-098-040200-
   Southwest Minnesota

CITY           SKY/WX    TMP DP  RH WIND       PRES   REMARKS
MONTEVIDEO     MOCLDY    10   7  85 N16       30.03R WCI  -7
GRANITE FALLS  CLEAR     10   2  70 W18G24    30.04R WCI  -8
CANBY          CLEAR     10   2  68 W15       30.04R WCI  -6
MARSHALL       CLEAR     10   0  61 NW18      30.03R WCI  -8
REDWOOD FALLS  LGT SNOW  12   6  77 NW16G24   30.00R WCI  -5
OLIVIA         CLEAR     10   5  79 NW14G25   29.99R WCI  -5
PIPESTONE      CLEAR      9   3  78 NW14      29.99R WCI  -8
WINDOM         CLEAR     10   3  72 NW18G24   29.97R WCI  -8
WORTHINGTON    CLEAR     10   1  67 NW22G29   29.98R WCI  -9
JACKSON        PTCLDY    12   5  73 NW20G32   29.96R WCI  -6
TRACY          CLEAR     11   3  70 NW16      30.00R WCI  -6
SLAYTON        PTCLDY     9   1  71 NW18      29.98R WCI -10
$$
MNZ065>067-074>077-082>085-091>093-040200-
   South Central Minnesota

CITY           SKY/WX    TMP DP  RH WIND       PRES   REMARKS
MANKATO        MOCLDY    12   5  73 NW25G38   29.93R WCI  -8
NEW ULM        PTCLDY    10   3  72 NW25      29.96R WCI -10
ST JAMES       CLEAR     12   7  79 W24G31    29.98R WCI  -8
FAIRMONT       PTCLDY    12   3  67 W22G28    29.93R WCI  -7
GLENCOE        MOCLDY    13   8  79 W23       29.94R WCI  -6
FARIBAULT      PTCLDY    14   7  73 W17G24    29.90R WCI  -3
OWATONNA       CLOUDY    14   9  79 W18G24    29.89R WCI  -3
WASECA         LGT SNOW  14   9  79 NW25      29.93R WCI  -5
ALBERT LEA     MOCLDY    14   9  79 NW13G22   29.90R HAZE    WCI   0
$$
MNZ078>079-086>088-094>096-040200-
   Southeast Minnesota

CITY           SKY/WX    TMP DP  RH WIND       PRES   REMARKS
ROCHESTER      PTCLDY    15   9  76 NW25G35   29.83R HAZE    WCI  -4
RED WING       CLEAR     19   9  63 W16G22    29.85R WCI   5
STANTON        CLEAR     16   8  69 W23       29.87R WCI  -2
DODGE CENTER   MOCLDY    14  10  85 W18G26    29.85R FOG     WCI  -3
WINONA         CLEAR     27  14  59 W15G25    29.83R WCI  15
AUSTIN         PTCLDY    14   9  79 NW18G26   29.87R WCI  -3
PRESTON        PTCLDY    16  11  82 NW25G32   29.84R WCI  -3
$$
ABBREVIATIONS USED IN REMARKS
   TC - TEMPERATURES IN CELSIUS
  WCI - WIND CHILL INDEX
   HX - HEAT INDEX
  VSB - VISIBILITY
$$


USA.gov is the U.S. government's official web portal to all federal, state and local government web resources and services.